Flag for U.S.A. Weather past 2 weeks in Aurora, Illinois, U.S.A.

Now
36 °F

Mostly cloudy.


Feels Like: 28 °F
Forecast: 32 / 44 °F
Wind: 12 mph from South

Location: Dupage Airport

Current Time: Dec 21, 2014 at 6:01:33 PM

Latest Report: Dec 21, 2014 at 4:52 PM


Visibility: 8 mi

Pressure: 30.08 "Hg

Humidity: 75%

Dew point: 29 °F

Location of AuroraLocation

Historic Weather in Aurora — Graph

°F

Aurora temperature yesterday

Maximum temperature yesterday: 33 °F (at 2:52 PM)
Minimum temperature yesterday: 27 °F (at 12:52 AM)
Average temperature yesterday: 30 °F

Past Weeks' High & Low Weather Summary

 TemperatureHumidityPressure
High47 °F (Dec 14, 11:52 AM)100% (Dec 14, 9:52 AM)30.66 "Hg (Dec 14, 9:52 AM)
Low20 °F (Dec 6, 11:52 PM)50% (Dec 7, 12:52 PM)29.64 "Hg (Dec 16, 12:52 AM)
Average33 °F82%30.21 "Hg
* Reported Dec 6 4:52 PM — Dec 21 4:52 PM, Aurora, Weather by CustomWeather, © 2014

Note: Actual official high and low records may vary slightly from our data, if they occured in-between our weather recording intervals... More about our weather records

Advertising

Aurora weather history for previous 24 hours

 ConditionsComfort  
Time TempWeatherWind HumidityBarometerVisibility
4:52 PM
Dec 21
36 °FMostly cloudy.12 mph75%30.08 "Hg8 mi
3:52 PM37 °FMostly cloudy.12 mph76%30.08 "Hg7 mi
2:52 PM37 °FMostly cloudy.14 mph76%30.09 "Hg7 mi
1:52 PM37 °FOvercast.16 mph76%30.09 "Hg6 mi
12:52 PM36 °FOvercast.13 mph75%30.12 "Hg6 mi
11:52 AM35 °FOvercast.13 mph78%30.15 "Hg6 mi
10:52 AM34 °FMostly cloudy.10 mph82%30.18 "Hg5 mi
9:52 AM33 °FMostly cloudy.12 mph82%30.20 "Hg5 mi
8:52 AM32 °FIce fog.12 mph85%30.20 "Hg5 mi
7:52 AM32 °FOvercast.10 mph82%30.21 "Hg7 mi
6:52 AM32 °FOvercast.7 mph85%30.22 "Hg7 mi
5:52 AM32 °FOvercast.9 mph85%30.22 "Hg7 mi
4:52 AM32 °FOvercast.8 mph82%30.22 "Hg7 mi
3:52 AM32 °FOvercast.8 mph82%30.23 "Hg7 mi
2:52 AM32 °FOvercast.7 mph82%30.25 "Hg7 mi
1:52 AM32 °FOvercast.8 mph82%30.24 "Hg8 mi
12:52 AM32 °FOvercast.8 mph82%30.24 "Hg8 mi
11:52 PM
Dec 20
32 °FMostly cloudy.8 mph82%30.25 "Hg8 mi
10:52 PM32 °FOvercast.6 mph82%30.25 "Hg8 mi
9:52 PM32 °FMostly cloudy.7 mph79%30.26 "Hg8 mi
8:52 PM32 °FOvercast.6 mph79%30.27 "Hg8 mi
7:52 PM32 °FOvercast.6 mph79%30.27 "Hg8 mi
6:52 PM31 °FOvercast.3 mph82%30.27 "Hg8 mi
Weather by CustomWeather, © 2014

See weather overviewHow to use our weather pages